Flag for India Past Weather in New Okhla Industrial Development Authority, Uttar Pradesh, India — Yesterday and Last 2 Weeks

Now
81 °F

Passing clouds.


Feels Like: 80 °F
Forecast: 76 / 101 °F
Wind: 3 mph from West

Location: New Delhi Palam Airport

Current Time: Apr 26, 2017 at 4:11:11 am

Latest Report: Apr 26, 2017 at 3:30 am


Visibility: 2 mi

Pressure: 29.68 "Hg

Humidity: 37%

Dew Point: 52 °F

Location of New Okhla Industrial Development AuthorityLocation

Past Weather in New Okhla Industrial Development Authority — Graph

°F

New Okhla Industrial Development Authority Temperature Yesterday

Maximum temperature yesterday: 102 °F (at 2:00 pm)
Minimum temperature yesterday: 75 °F (at 6:00 am)
Average temperature yesterday: 91 °F

High & Low Weather Summary for the Past Weeks

 TemperatureHumidityPressure
High113 °F (Apr 18, 4:00 pm)58% (Apr 18, 6:30 am)29.83 "Hg (Apr 18, 6:30 am)
Low63 °F (Apr 11, 6:30 am)8% (Apr 15, 3:30 pm)29.50 "Hg (Apr 20, 3:30 pm)
Average92 °F26%29.68 "Hg
* Reported Apr 11 2:30 am — Apr 26 3:00 am, New Okhla Industrial Development Authority, Weather by CustomWeather, © 2017

Note: Actual official high and low records may vary slightly from our data, if they occured in-between our weather recording intervals... More about our weather records

Advertising

New Okhla Industrial Development Authority Weather History for the Previous 24 Hours

Scroll right to see more
 ConditionsComfort  
Time TempWeatherWind HumidityBarometerVisibility
3:00 am
Wed, Apr 26
82 °FPassing clouds.6 mph32%29.71 "Hg2 mi
2:30 am82 °FPassing clouds.7 mph58%29.71 "Hg2 mi
2:00 am81 °FPassing clouds.6 mph37%29.71 "Hg2 mi
1:30 am81 °FPassing clouds.6 mph34%29.74 "Hg2 mi
1:00 am82 °FPassing clouds.12 mph32%29.80 "Hg2 mi
12:00 am84 °FPassing clouds.12 mph33%29.80 "Hg2 mi
11:30 pm
Tue, Apr 25
84 °FPassing clouds.6 mph33%29.74 "Hg2 mi
11:00 pm84 °FThunderstorms. Passing clouds.6 mph31%29.74 "Hg2 mi
10:30 pm84 °FThunderstorms. Passing clouds.12 mph31%29.74 "Hg2 mi
10:00 pm84 °FThunderstorms. Partly cloudy.12 mph35%29.74 "Hg2 mi
9:00 pm97 °FThunderstorms. Partly cloudy.12 mph18%29.71 "Hg2 mi
8:30 pm97 °FPassing clouds.6 mph18%29.68 "Hg2 mi
8:00 pm97 °FPassing clouds.6 mph18%29.68 "Hg2 mi
7:30 pm99 °FPassing clouds.7 mph16%29.65 "Hg2 mi
7:00 pm99 °FScattered clouds.7 mph16%29.65 "Hg2 mi
6:30 pm99 °FScattered clouds.8 mph17%29.65 "Hg2 mi
6:00 pm99 °FScattered clouds.9 mph17%29.65 "Hg2 mi
5:00 pm100 °FScattered clouds.12 mph16%29.65 "Hg2 mi
4:30 pm102 °FScattered clouds.12 mph16%29.65 "Hg2 mi
4:00 pm102 °FScattered clouds.12 mph17%29.65 "Hg2 mi
3:30 pm102 °FHaze.9 mph17%29.68 "Hg2 mi
3:00 pm102 °FHaze.14 mph16%29.68 "Hg2 mi
2:30 pm102 °FHaze.9 mph16%29.71 "Hg2 mi
2:00 pm102 °FHaze.9 mph15%29.71 "Hg2 mi
1:30 pm100 °FHaze.9 mph13%29.71 "Hg2 mi
1:00 pm99 °FHaze.9 mph14%29.74 "Hg2 mi
12:30 pm99 °FHaze.14 mph18%29.74 "Hg2 mi
12:00 pm99 °FHaze.12 mph18%29.74 "Hg2 mi
11:00 am95 °FHaze.14 mph19%29.77 "Hg2 mi
10:30 am91 °FHaze.10 mph28%29.77 "Hg2 mi
10:00 am88 °FClear.7 mph29%29.74 "Hg4 mi
9:00 am84 °FHaze.7 mph35%29.77 "Hg2 mi
7:30 am79 °FHaze.6 mph42%29.74 "Hg1 mi
6:30 am75 °FHaze.3 mph47%29.71 "Hg1 mi
6:00 am75 °FHaze.3 mph47%29.71 "Hg1 mi
5:30 am77 °FHaze.6 mph42%29.71 "Hg2 mi
5:00 am79 °FHaze.5 mph39%29.71 "Hg2 mi
4:30 am81 °FHaze.5 mph39%29.68 "Hg2 mi
Weather by CustomWeather, © 2017

See weather overviewHow to use our weather pages